Theta_e
315 315 316 318 318 318 319 317 315 313 312 312 313 313 313 313 313 309 302 306 307 302 305 310 315 311 312 315 311 313 314 313 310 303 301 303 302 303 302 307 306 301 298 295 296 295 295 314 313 307 310 312 317 317
315 316 317 318 317 318 318 317 315 313 312 312 312 312 312 312 312 311 301 307 308 306 307 312 316 316 315 318 316 316 314 315 315 308 305 304 303 303 301 299 305 300 302 301 301 303 311 311 314 316 316 314 313 314
315 316 317 317 317 317 317 317 315 313 312 311 312 312 312 311 312 309 301 302 304 304 307 306 309 315 316 316 319 312 316 319 315 317 310 306 302 304 298 300 301 305 307 306 305 308 310 315 314 315 316 315 315 316
315 316 316 316 316 316 317 316 314 313 311 311 311 311 311 311 311 310 300 302 301 303 301 305 317 311 314 314 314 316 318 316 315 312 306 303 301 304 300 302 301 306 306 304 305 309 313 314 315 316 316 317 316 316
315 316 316 316 315 315 316 315 313 312 311 311 311 310 310 311 311 308 303 304 305 304 301 303 311 312 313 314 314 313 311 309 308 305 303 302 304 303 302 302 300 307 305 303 303 310 309 311 315 317 316 315 314 312
314 315 315 314 314 315 315 314 312 311 310 310 310 310 310 310 310 302 304 308 308 307 305 300 309 308 310 311 312 310 310 307 305 305 304 305 310 304 299 297 306 307 309 313 313 315 315 316 317 316 315 315 313 311
314 314 314 313 314 315 314 312 311 310 310 310 310 310 310 309 302 299 303 311 308 305 305 302 302 308 311 308 308 308 308 306 306 304 303 304 307 307 301 299 307 311 316 316 317 318 314 316 313 314 315 314 313 311
313 313 313 314 314 313 312 310 310 309 309 309 310 310 309 309 306 301 305 307 307 302 306 300 301 305 312 305 304 307 305 305 305 304 305 303 306 305 300 305 309 311 316 316 315 317 315 314 313 312 314 312 309 307
312 313 313 313 312 311 309 308 308 308 309 309 309 309 304 302 302 307 317 312 307 309 303 303 296 297 309 306 305 306 307 301 305 302 303 304 302 300 304 306 310 312 313 313 316 315 314 312 311 311 312 309 306 305
312 312 312 311 310 308 307 307 308 308 308 308 303 303 303 308 318 317 309 306 305 306 305 302 306 303 307 304 303 305 304 301 299 304 307 301 299 305 309 309 314 313 316 317 313 310 312 310 310 309 307 307 306 306
310 309 309 308 308 307 307 307 307 308 309 303 301 304 308 317 310 307 302 299 300 298 302 304 303 300 306 303 302 305 303 302 298 301 302 299 298 305 312 313 314 314 317 318 318 316 315 313 309 307 306 307 308 309
307 308 307 307 306 306 306 307 307 303 300 300 299 302 304 307 305 300 300 302 301 300 303 300 301 302 303 307 304 305 301 302 298 306 302 298 303 311 315 316 314 316 318 318 319 316 314 312 309 306 306 306 307 308
307 307 306 305 305 306 306 306 307 307 307 303 301 302 305 303 293 297 296 298 299 303 306 304 302 303 303 307 305 304 300 300 305 301 300 302 310 314 315 316 314 316 315 314 312 312 311 309 309 307 305 307 308 307
305 305 305 305 305 306 307 308 308 307 305 300 300 291 299 296 299 299 300 301 305 308 308 305 303 301 304 303 304 301 304 303 298 295 298 306 312 312 313 315 314 312 312 311 310 310 309 307 306 307 306 306 305 304
303 303 304 306 306 306 306 307 308 305 303 300 301 290 296 300 302 302 306 305 309 311 310 304 304 303 302 302 302 302 300 298 299 298 302 310 316 315 314 314 313 312 310 309 309 308 307 306 305 304 305 304 304 304
303 304 303 304 304 305 305 306 305 304 302 300 298 295 299 299 299 303 304 304 309 308 313 311 305 299 300 300 299 299 300 298 300 309 315 316 314 314 314 314 314 313 311 309 308 307 306 305 305 305 306 305 305 304
304 300 303 303 304 306 306 303 301 298 297 296 292 295 295 297 297 300 303 304 308 309 308 309 303 299 301 300 299 302 300 302 314 316 316 316 316 316 315 315 314 313 311 310 308 307 305 306 306 305 304 306 306 305
300 301 303 303 302 302 301 302 299 297 292 292 290 294 297 299 300 303 305 306 305 304 311 308 309 303 299 300 299 303 311 315 318 319 319 320 318 317 318 315 315 314 312 310 309 306 306 307 306 305 305 306 306 305
301 301 303 303 300 299 297 298 299 292 294 295 294 297 297 298 301 303 306 307 308 306 310 309 306 300 302 309 307 310 315 318 319 318 319 319 318 318 317 317 315 313 312 310 308 307 305 307 306 305 306 307 310 310
303 303 303 303 301 296 294 295 300 295 293 294 296 295 296 298 301 302 304 306 306 305 307 305 305 308 308 312 314 315 318 322 323 317 317 318 318 319 318 317 315 313 312 308 307 306 306 305 307 308 308 308 309 307
301 302 302 301 298 296 294 293 294 296 297 293 299 299 296 299 298 298 298 305 304 302 303 310 313 315 314 312 319 317 322 322 319 319 319 318 318 319 318 317 317 315 313 310 309 307 307 306 307 307 305 304 304 304
300 303 298 299 294 295 292 296 293 297 295 296 294 296 299 295 295 297 299 298 302 304 303 308 311 314 314 312 318 319 321 321 321 318 317 317 319 318 317 317 317 313 312 311 311 308 308 309 308 309 306 307 307 304
301 300 297 295 291 289 289 298 293 295 292 295 298 296 296 295 298 302 296 298 299 305 306 307 307 315 316 319 320 320 319 320 319 321 320 322 319 318 317 317 320 317 314 313 314 310 310 306 306 309 309 309 308 305
302 295 291 290 290 287 293 292 295 293 292 294 294 293 295 296 298 298 296 299 302 305 306 306 308 310 315 318 318 318 319 319 317 320 321 320 317 316 318 319 320 319 318 317 316 316 314 312 309 311 310 310 309 307
288 289 289 286 292 289 289 291 292 292 288 292 292 292 296 299 296 296 296 299 300 302 304 306 307 311 313 314 316 318 319 317 314 317 320 321 318 317 315 315 317 319 320 317 314 316 314 313 312 312 311 310 309 308
283 288 287 289 290 289 291 290 290 290 293 293 294 298 299 296 293 292 297 300 301 303 305 306 307 307 306 310 310 310 313 315 315 315 316 320 320 317 316 315 313 315 318 317 313 313 313 312 312 313 311 310 304 311
284 287 292 293 294 294 292 295 296 294 293 292 294 295 296 292 293 297 304 307 306 308 311 311 310 308 308 310 311 312 312 312 314 315 318 320 320 321 319 316 315 317 319 319 318 316 313 312 311 312 313 311 310 311
290 293 290 293 293 295 292 292 293 293 294 298 297 293 293 295 298 303 306 309 310 310 311 311 311 311 311 310 311 312 311 312 313 312 313 314 315 320 320 318 317 307 319 320 319 317 315 314 313 314 314 312 311 313
291 297 297 293 295 295 295 294 295 298 301 299 296 296 297 301 305 305 309 311 313 311 309 310 309 310 310 312 312 313 312 311 308 307 306 306 308 308 316 317 318 320 319 315 306 312 317 315 316 313 312 313 312 311
292 297 295 294 293 292 295 299 298 300 301 303 303 302 304 305 307 309 309 308 307 308 310 310 309 308 307 308 309 311 313 313 312 311 309 309 311 314 316 316 316 315 315 315 314 314 303 308 306 311 310 309 308 307
297 295 295 295 293 295 297 300 301 302 302 301 304 302 301 303 307 309 309 310 310 310 310 308 308 309 308 307 308 309 312 316 314 314 313 313 314 318 316 316 317 318 318 314 313 312 309 307 309 309 310 308 308 306
295 293 294 293 294 298 300 298 299 297 298 298 298 301 301 300 298 303 309 309 307 306 307 308 307 306 314 315 314 315 307 315 316 316 318 317 314 318 319 318 319 317 316 315 314 310 309 310 310 310 308 308 307 309
296 296 295 294 294 296 299 299 298 299 300 300 301 303 304 303 301 306 312 311 310 308 309 311 312 312 318 317 317 316 313 318 308 302 305 306 306 310 315 314 317 318 315 316 316 313 310 310 310 311 311 312 311 310
Wind_Speed
11 11 12 11 9 9 8 9 7 8 10 12 13 14 16 17 18 9 6 3 3 2 8 2 2 2 6 1 5 4 3 3 1 4 3 4 4 7 6 5 3 2 4 2 3 4 4 3 4 8 7 4 11 13
12 12 12 11 9 9 8 9 8 7 9 11 13 13 14 15 16 13 4 5 3 3 9 4 10 18 13 10 7 3 9 3 5 4 2 3 3 1 4 6 2 3 7 6 6 7 5 5 8 8 12 15 8 15
11 11 11 10 8 8 9 9 8 7 8 10 12 13 14 14 13 9 4 4 4 3 7 3 5 11 12 14 8 6 4 6 7 7 5 2 4 3 3 2 2 4 3 5 6 4 5 12 7 10 14 17 12 13
11 11 10 9 7 7 8 8 8 8 8 10 12 13 14 14 13 10 2 2 0 3 2 9 5 7 6 8 11 7 5 3 6 3 3 3 3 2 4 4 4 6 4 6 1 6 8 5 11 16 15 15 15 13
11 9 8 7 6 6 8 8 8 8 9 10 12 13 15 16 16 11 5 4 4 3 3 7 14 7 8 7 5 4 4 1 1 2 3 2 1 3 2 3 1 3 7 6 7 10 7 7 8 14 16 14 13 17
8 7 7 7 7 7 8 8 7 8 9 11 12 14 14 15 16 3 4 0 1 1 1 5 6 7 4 6 8 4 2 2 2 3 3 3 2 6 4 4 5 6 4 8 7 7 10 12 11 10 14 13 12 13
6 6 6 6 7 7 7 6 6 7 10 12 13 14 13 11 1 3 4 2 2 3 1 5 6 7 7 4 1 1 2 2 3 2 2 4 2 5 3 4 6 4 7 8 13 19 11 9 8 10 15 12 14 11
6 7 6 6 6 6 6 5 6 8 11 13 14 15 15 17 10 7 5 14 7 1 1 3 7 6 2 2 1 2 1 2 2 3 2 2 2 3 2 5 5 4 8 9 8 10 13 12 9 8 12 13 12 11
6 6 6 5 7 6 3 3 7 11 13 14 16 19 4 1 1 4 4 11 1 4 2 2 3 5 4 1 2 3 3 2 2 3 3 5 1 3 8 7 7 8 8 10 13 16 14 16 12 10 14 11 12 8
5 4 9 9 7 4 1 5 10 13 16 14 4 1 3 3 3 2 4 2 3 2 1 4 3 5 3 2 1 3 2 4 1 6 2 4 5 5 6 9 10 9 14 18 16 8 11 9 11 8 9 8 9 9
12 12 10 8 7 4 4 8 12 15 6 1 3 2 3 4 3 0 2 3 2 3 4 6 7 4 4 1 5 3 4 1 2 7 6 2 3 6 6 8 8 10 13 14 17 17 16 16 13 11 9 8 10 11
10 9 8 7 5 4 6 9 13 5 2 2 3 4 4 2 0 1 4 3 5 6 4 5 6 6 4 2 2 1 3 3 4 2 4 3 6 4 8 6 7 9 12 10 13 13 12 12 11 10 8 8 8 8
9 8 7 5 5 5 7 8 8 8 7 1 1 2 2 2 0 5 5 4 3 4 4 2 2 5 2 2 1 3 3 5 1 2 3 5 4 3 7 11 9 11 15 17 15 13 15 12 10 11 9 7 9 8
6 5 4 2 3 5 6 9 9 6 2 0 2 4 4 5 5 6 5 4 6 4 6 2 2 4 3 2 2 4 4 3 2 3 6 4 6 5 7 11 16 13 15 16 15 14 14 12 10 9 9 8 8 7
5 4 6 5 4 6 8 9 8 2 2 1 1 5 6 5 4 4 6 4 7 7 8 1 2 4 0 2 1 2 2 4 5 5 5 4 7 9 12 12 15 14 13 12 12 12 12 11 10 8 8 7 7 7
7 2 4 7 9 9 9 6 2 1 1 2 4 3 5 2 4 6 4 3 6 9 4 2 2 3 3 5 3 5 3 5 5 4 3 6 7 8 12 12 13 12 13 11 10 10 10 9 9 8 7 7 7 7
4 2 4 7 9 8 3 2 2 1 2 3 5 3 4 6 6 5 3 4 7 4 2 3 4 7 1 3 4 5 5 5 4 3 2 6 9 12 10 12 13 13 12 11 9 9 8 7 8 6 7 6 7 7
2 1 4 8 7 3 1 2 1 2 4 4 3 4 3 3 6 4 3 3 4 4 3 2 3 3 4 4 3 5 2 2 2 4 5 6 7 8 12 13 10 11 10 10 11 8 8 8 7 6 6 5 5 4
0 1 3 5 4 2 1 1 1 3 5 4 4 6 4 5 4 2 2 4 3 4 3 1 2 2 3 0 2 2 1 4 7 3 3 5 7 9 8 8 9 8 11 9 9 7 6 8 7 5 5 4 4 5
5 6 7 3 2 1 2 2 2 3 4 3 3 4 4 4 3 2 3 2 3 4 3 3 4 2 3 4 3 4 3 4 8 5 4 4 3 9 10 9 7 7 7 7 6 6 4 2 2 4 4 5 5 5
2 1 3 3 1 0 2 2 3 4 4 4 3 3 4 1 1 1 1 2 1 1 3 3 3 5 6 4 5 2 3 5 3 6 7 6 3 5 6 5 7 5 6 5 6 5 6 5 5 5 4 4 5 6
2 6 2 1 1 3 3 3 3 3 3 4 4 2 2 1 2 3 2 3 4 5 3 2 4 4 5 5 5 5 4 6 6 6 8 11 6 5 5 4 5 3 3 5 5 5 5 5 5 5 5 5 5 5
4 2 1 2 3 3 4 3 4 4 4 3 1 2 2 2 4 1 3 4 5 5 4 4 4 7 4 6 14 5 4 7 5 3 4 5 5 6 6 5 6 9 3 0 3 5 5 6 5 5 5 5 5 4
2 3 3 3 5 3 3 4 3 3 3 3 4 3 3 4 1 2 4 4 3 3 5 8 7 4 4 6 2 3 3 5 5 4 5 7 6 6 8 8 8 8 10 6 5 4 5 4 3 5 5 6 6 5
3 3 3 5 3 4 5 4 4 4 4 6 4 3 3 2 2 4 4 4 5 7 7 11 9 5 4 2 4 5 6 3 5 6 4 5 7 6 4 3 3 7 7 8 5 6 2 4 3 4 6 4 6 7
4 5 6 5 4 5 5 3 7 7 3 3 5 4 3 3 3 5 4 3 4 4 5 9 9 5 4 3 3 2 3 2 4 5 4 8 10 11 10 10 6 6 7 6 5 5 5 5 5 4 5 7 11 9
5 6 6 5 4 1 3 3 1 3 3 4 3 4 4 4 5 4 2 3 1 2 2 3 5 5 5 3 3 2 2 1 3 5 5 6 7 9 11 12 11 9 10 11 6 6 7 6 6 6 3 3 5 6
5 4 5 3 4 4 2 1 4 4 4 4 2 3 3 2 2 2 3 3 3 4 5 2 4 4 4 3 4 4 3 4 3 4 5 4 3 6 7 4 4 13 8 7 6 6 6 6 6 6 5 4 5 4
6 4 3 5 3 4 4 4 4 2 2 1 1 3 4 3 2 2 3 3 2 5 4 4 2 3 2 2 4 2 1 1 2 5 5 3 3 0 3 5 5 6 5 6 8 8 9 6 5 5 6 5 1 2
4 4 5 4 4 4 4 6 5 4 2 3 3 1 3 3 4 3 3 4 0 4 6 4 1 2 2 3 3 4 2 3 5 5 5 4 4 3 5 5 6 5 5 5 5 4 3 5 3 4 3 1 3 2
3 2 3 2 4 3 4 5 2 4 4 4 4 3 5 4 5 3 7 8 6 4 3 4 3 2 5 4 8 5 2 1 6 5 4 4 4 6 5 6 4 4 6 7 6 5 4 3 5 5 6 6 6 5
3 3 5 4 4 5 3 3 4 4 4 4 5 5 3 3 4 5 4 6 3 2 5 4 4 4 3 3 3 5 6 4 5 6 8 5 3 6 8 7 6 4 5 5 4 3 4 7 8 7 7 8 7 7
2 1 1 2 2 3 2 1 2 2 2 1 1 1 1 2 3 3 3 2 5 5 5 4 3 3 7 5 5 5 5 4 7 5 6 4 5 5 6 4 3 5 6 7 7 4 7 10 7 8 9 8 7 7
Wind_Direction
266 267 272 267 259 265 261 263 272 292 309 321 332 340 345 349 351 358 278 264 82 273 278 247 294 333 342 81 120 275 12 358 146 108 163 246 149 217 111 183 141 325 112 198 81 97 261 242 349 108 185 51 103 82
263 256 263 259 255 260 254 254 264 278 299 315 326 335 342 347 352 358 300 332 337 184 249 169 248 254 228 216 106 275 170 148 263 28 189 211 69 88 127 163 150 193 186 170 156 207 234 324 121 117 133 116 100 104
262 258 256 244 247 256 252 247 256 273 293 311 321 329 335 340 346 359 279 291 345 310 300 344 232 264 217 211 178 134 276 91 298 199 203 158 93 116 107 215 104 297 117 98 70 309 116 113 92 109 114 111 112 105
258 259 246 238 244 254 253 245 257 274 291 306 316 323 327 330 331 331 261 264 225 269 270 281 330 316 304 187 196 190 183 125 196 246 92 101 115 134 204 180 144 202 103 138 67 75 77 39 120 125 113 111 105 102
255 244 234 234 245 253 248 239 255 273 290 304 312 318 323 327 324 305 225 231 211 121 254 285 308 245 252 164 156 126 108 145 299 20 69 218 215 91 0 76 285 184 174 146 207 198 141 174 150 126 117 120 119 115
235 228 229 238 245 247 232 232 250 276 293 303 308 313 318 325 334 332 6 9 185 37 308 314 290 304 360 139 130 146 175 157 123 142 237 299 272 102 116 189 249 259 217 166 183 159 135 138 128 119 119 125 118 111
224 226 233 241 242 237 216 227 254 280 294 300 304 305 306 309 335 205 223 223 84 330 84 310 297 267 201 124 41 109 18 187 133 181 198 175 251 95 108 174 237 213 121 102 117 110 92 138 142 124 120 117 112 111
226 231 238 235 237 184 194 234 274 291 295 299 298 296 296 294 274 283 245 243 162 249 68 257 269 336 147 127 203 182 142 31 332 186 30 127 5 78 164 235 188 135 106 119 117 110 120 122 109 102 115 117 110 112
232 236 230 199 157 161 185 286 301 300 298 296 299 299 311 133 227 247 73 121 136 136 219 258 223 254 345 182 181 22 103 98 296 156 230 102 293 197 212 186 154 168 151 139 116 119 123 123 128 117 119 117 120 121
215 221 141 131 133 115 33 324 316 307 299 298 303 357 308 238 126 104 10 28 357 266 235 229 265 270 44 10 305 85 32 179 106 245 84 125 229 246 217 195 163 153 132 133 120 116 125 119 128 129 131 136 129 132
95 103 108 103 96 65 360 341 329 321 322 40 359 261 297 297 35 256 248 164 197 254 217 230 192 226 308 160 220 188 178 170 126 260 136 220 260 238 206 168 183 147 151 158 155 152 154 147 143 135 127 124 126 132
85 95 100 95 73 28 0 352 347 7 70 226 267 280 301 323 324 238 228 250 178 228 224 184 221 183 246 173 139 260 155 71 218 171 101 205 247 251 171 162 116 130 128 120 136 131 129 126 128 123 122 121 122 124
79 87 84 62 24 359 349 342 337 313 303 112 208 288 183 252 327 206 226 250 224 238 225 175 228 174 336 41 45 98 115 206 54 55 223 222 249 194 132 119 111 111 106 105 101 101 105 105 100 111 112 109 114 110
62 58 44 26 344 345 348 338 323 323 280 174 176 296 192 232 231 201 230 251 262 296 311 256 180 166 208 89 146 109 237 85 199 193 216 227 214 148 117 129 120 119 114 112 114 114 114 115 113 102 98 110 106 108
30 16 6 31 15 352 341 333 331 296 7 241 215 229 238 251 290 293 260 289 304 293 288 280 43 112 101 112 167 94 147 221 207 221 227 206 161 138 131 130 126 126 124 120 123 120 119 119 119 119 125 128 126 135
354 315 27 9 354 343 333 325 294 253 278 253 241 278 287 316 335 338 331 328 341 327 307 5 111 114 203 164 137 216 195 196 236 223 224 132 131 127 138 136 132 130 130 130 128 132 131 129 140 153 148 151 157 155
349 52 347 353 339 334 0 354 352 273 264 259 257 258 240 265 253 262 306 340 318 328 316 49 321 204 181 148 192 188 202 214 188 167 149 150 151 144 136 134 137 139 140 143 132 136 140 140 139 130 148 188 180 184
68 294 353 354 351 334 6 3 337 284 254 255 258 287 307 283 310 297 324 350 359 341 335 260 301 348 195 195 237 259 221 117 91 141 149 128 114 128 140 140 143 143 139 138 141 141 136 141 157 180 177 183 167 172
56 272 348 356 8 352 292 238 165 266 245 259 268 265 239 255 257 254 329 333 301 244 251 298 244 261 286 236 221 266 20 163 143 128 73 80 115 122 119 119 123 126 135 138 141 153 157 164 175 174 188 168 189 197
284 278 266 270 38 337 256 226 179 251 263 262 255 250 223 235 248 302 314 303 316 314 290 209 203 153 256 284 269 235 165 138 128 110 104 86 115 129 132 133 135 126 117 111 122 126 135 147 191 189 207 206 174 190
266 179 103 120 85 37 306 298 251 225 277 261 281 320 256 332 304 256 278 181 120 243 278 7 22 314 276 286 297 346 122 126 171 147 152 138 152 124 115 108 115 113 142 149 155 182 165 188 204 199 189 183 172 165
204 168 113 209 251 192 256 226 258 300 261 269 300 281 271 278 266 241 267 201 215 198 218 147 268 325 313 327 289 318 156 132 126 102 92 122 131 138 123 131 118 131 161 178 170 172 192 206 190 197 178 192 199 166
154 214 176 167 227 226 264 202 235 207 248 263 271 249 242 239 235 111 259 233 233 207 194 220 194 228 207 295 291 229 227 142 95 120 148 146 118 119 121 129 135 129 123 316 170 181 193 190 194 206 201 165 168 171
173 189 222 220 198 251 233 223 219 249 222 226 238 213 220 226 215 228 245 243 233 227 193 243 264 274 280 235 207 297 168 106 91 93 124 135 144 153 148 150 159 158 158 181 202 174 134 183 207 168 172 161 172 173
220 209 209 223 204 222 230 232 192 206 244 211 213 257 253 152 223 233 242 256 213 218 216 207 234 229 224 189 83 294 278 178 151 130 195 162 126 110 99 121 171 165 169 178 193 210 150 136 199 202 144 160 169 162
236 211 210 206 201 216 208 234 192 206 256 215 222 228 167 191 236 242 240 237 208 201 199 195 198 192 224 187 136 269 335 352 123 121 156 157 158 154 162 164 166 219 189 200 187 165 154 185 207 212 149 184 185 185
248 241 200 221 255 268 270 215 149 286 259 227 231 175 185 232 229 251 301 342 360 303 223 165 159 156 163 159 189 147 236 182 162 191 167 164 160 165 165 167 191 202 180 197 174 165 169 182 182 198 193 182 202 190
250 250 229 229 220 219 219 174 260 219 208 233 313 234 223 244 298 279 260 304 321 348 20 315 141 134 121 124 127 99 56 41 69 74 77 74 140 161 187 188 140 154 170 168 167 158 168 179 177 203 218 211 203 231
236 211 169 273 209 214 212 223 244 261 143 148 251 293 332 289 253 283 296 42 54 318 346 337 359 52 46 47 82 83 147 90 96 132 129 135 79 51 209 157 158 170 144 133 165 162 176 180 161 131 144 135 67 58
240 152 184 263 205 240 210 174 209 224 201 204 186 321 285 270 259 283 311 315 214 176 249 276 46 106 192 165 217 243 245 193 148 138 149 148 179 192 154 154 137 121 122 125 155 201 160 128 145 169 173 93 91 142
181 228 143 246 282 264 270 267 198 178 205 184 186 200 242 282 311 257 182 229 249 259 270 279 304 14 247 229 236 204 116 325 186 165 131 139 147 109 117 120 132 143 141 139 168 186 159 130 158 163 161 170 192 213
239 201 150 174 245 262 281 251 230 219 220 203 223 211 242 232 243 255 242 192 207 229 257 257 263 289 4 33 111 107 119 139 135 134 131 123 148 136 134 147 167 153 120 130 151 173 163 156 165 168 172 179 192 215
263 152 130 276 258 239 258 285 246 292 279 350 308 291 243 219 257 281 332 152 184 189 208 245 296 176 144 130 115 118 123 117 106 102 116 136 226 163 129 138 158 182 181 199 207 213 173 158 162 175 190 192 200 217